Powrót do katalogu

KUIPER-00142

AktywnyŁącznośćLEO
NORAD 65766·PAYLOAD·🇺🇸 United States

Wystrzelony Sep 25, 2025 z Cape Canaveral Space Force Station

Loading…

Następne Przeloty (najbliższe 24 godziny)

TLE

ŚwieżeSource: CelesTrak SupGP

Epoka: Sep 14, 2026, 13:09 UTC

1 65766C 25217E   26257.54804398  .00005974  00000+0  78223-3 0  2576
2 65766  51.8979 280.4480 0000502  67.4660 163.2854 14.79915604    19

Śledź KUIPER-00142 w czasie rzeczywistym z AllMySat

Download on the App Store